Weather History for Renton, WA

Change the Weather History Date:

Tuesday, January 22, 2013

  Actual Average Record
Temperature  
Mean Temperature 34 °F -  
Max Temperature 39 °F 46 °F - (-1)
Min Temperature 28 °F 37 °F - (-1)
Degree Days  
Heating Degree Days 32    
Moisture  
Dew Point 31 °F    
Average Humidity 95    
Maximum Humidity 100    
Minimum Humidity 79    
Precipitation  
Precipitation 0.00 in - - ()
Sea Level Pressure  
Sea Level Pressure 30.07 in    
Wind  
Wind Speed 0 mph (South)    
Max Wind Speed 6 mph    
Max Gust Speed -    
Visibility 3 miles    
Events Fog    
Averages and records for this station are not official NWS values.
T = Trace of Precipitation, MM = Missing Value Source: NWS Daily Summary

Daily Weather History Graph

Daily Weather History Graph

Search for Another Location

Airport:

Trip Planner

Search our weather history database for the weather conditions in past years. The results will help you decide how hot, cold, wet, or windy it might be!

Date:

Astronomy

Jan. 22, 2013 Rise Set
Actual Time 7:45 AM PST 4:55 PM PST
Civil Twilight 7:12 AM PST 5:29 PM PST
Nautical Twilight 6:34 AM PST 6:07 PM PST
Astronomical Twilight 5:58 AM PST 6:43 PM PST
Moon 1:19 PM PST (1/22) 4:15 AM PST (1/22)
Length of Visible Light 10h 17m
Length of Day
9h 09m
Waxing Gibbous, 83% of the Moon is Illuminated
Jan 22
Waxing Gibbous
Jan 26
Full
Feb 3
Last Quarter
Feb 9
New
Feb 17
First Quarter

Hourly Weather History & Observations

Time (PST) Temp. Windchill Dew Point Humidity Pressure Visibility Wind Dir Wind Speed Gust Speed Precip Events Conditions
12:02 AM 30.2 °F - 30.2 °F 100% 30.15 in 4.0 mi Calm Calm - N/A   Overcast
12:09 AM 30.2 °F - 30.2 °F 100% 30.15 in 1.8 mi Calm Calm - N/A   Overcast
12:53 AM 30.0 °F - 30.0 °F 100% 30.17 in 1.2 mi Calm Calm - N/A   Overcast
1:09 AM 28.4 °F - 28.4 °F 100% 30.15 in 0.8 mi Calm Calm - N/A   Overcast
1:53 AM 28.9 °F - 28.9 °F 100% 30.16 in 0.2 mi Calm Calm - N/A Fog Light Freezing Fog
2:53 AM 28.9 °F - 28.9 °F 100% 30.15 in 0.2 mi Calm Calm - N/A Fog Light Freezing Fog
3:53 AM 30.0 °F - 30.0 °F 100% 30.16 in 0.2 mi Calm Calm - N/A Fog Light Freezing Fog
4:53 AM 30.0 °F - 30.0 °F 100% 30.13 in 0.5 mi Calm Calm - N/A Fog Light Freezing Fog
5:53 AM 30.0 °F - 30.0 °F 100% 30.12 in 1.0 mi Calm Calm - N/A   Mist
6:09 AM 30.2 °F - 30.2 °F 100% 30.10 in 0.5 mi Calm Calm - N/A Fog Light Freezing Fog
6:53 AM 30.9 °F - 30.9 °F 100% 30.12 in 0.5 mi Calm Calm - N/A Fog Light Freezing Fog
7:53 AM 30.9 °F - 30.9 °F 100% 30.11 in 0.5 mi Calm Calm - N/A Fog Light Freezing Fog
8:53 AM 30.0 °F - 30.0 °F 100% 30.10 in 0.5 mi Calm Calm - N/A Fog Light Freezing Fog
9:53 AM 30.0 °F - 30.0 °F 100% 30.11 in 1.5 mi Calm Calm - N/A   Overcast
10:14 AM 30.2 °F - 30.2 °F 100% 30.09 in 2.5 mi Calm Calm - N/A   Overcast
10:53 AM 30.9 °F - 30.0 °F 96% 30.09 in 2.5 mi Calm Calm - N/A   Overcast
11:25 AM 32.0 °F - 30.2 °F 93% 30.08 in 2.5 mi Calm Calm - N/A   Mostly Cloudy
11:53 AM 32.0 °F - 30.9 °F 96% 30.09 in 4.0 mi Calm Calm - N/A   Overcast
12:19 PM 32.0 °F - 30.2 °F 93% 30.06 in 4.0 mi Calm Calm - N/A   Scattered Clouds
12:53 PM 34.0 °F - 32.0 °F 92% 30.06 in 5.0 mi Calm Calm - N/A   Partly Cloudy
1:53 PM 37.0 °F - 30.9 °F 79% 30.04 in 6.0 mi Calm Calm - N/A   Haze
2:53 PM 37.9 °F - 32.0 °F 79% 30.01 in 5.0 mi Calm Calm - N/A   Haze
3:53 PM 39.0 °F 36.8 °F 33.1 °F 79% 30.00 in 5.0 mi SW 3.5 mph - N/A   Haze
4:53 PM 37.0 °F 34.5 °F 34.0 °F 89% 29.99 in 5.0 mi SSE 3.5 mph - N/A   Clear
5:53 PM 37.0 °F - 34.0 °F 89% 29.98 in 5.0 mi Calm Calm - N/A   Clear
6:53 PM 37.0 °F - 34.0 °F 89% 29.97 in 6.0 mi Calm Calm - N/A   Clear
7:53 PM 36.0 °F - 34.0 °F 93% 29.95 in 5.0 mi Calm Calm - N/A   Clear
8:53 PM 36.0 °F - 34.0 °F 93% 29.95 in 5.0 mi Calm Calm - N/A   Clear
9:53 PM 35.6 °F - 33.8 °F 93% 29.92 in 5.0 mi Calm Calm - N/A   Clear
10:53 PM 37.0 °F - 34.0 °F 89% 29.94 in 5.0 mi Calm Calm - N/A   Overcast
11:53 PM 36.0 °F 31.1 °F 34.0 °F 93% 29.95 in 5.0 mi SSE 5.8 mph - N/A   Scattered Clouds